Terminal Aerodrome Forecast
Issued by NWS

Home | Current Version | Previous Version | Text Only | Print | Product List | Glossary On
Versions: 1 2 3 4 5 6 7 8 9 10 11 12 13 14
000
FTUS43 KEAX 290900 AAA
TAFSTJ
TAF AMD
KSTJ 290915Z 2909/3006 34004KT P6SM SCT050
      TEMPO 2909/2913 2SM BR=

USA.gov is the U.S. government's official web portal to all federal, state and local government web resources and services.